Regional Weather Roundup
Issued by NWS Newport/Morehead, NC

Current Version | Previous Version | Text Only | Print | Product List | Glossary On
Versions: 1 2 3 4 5 6 7 8 9 10 11 12 13 14 15 16 17 18 19 20 21 22 23 24 25 26 27 28 29 30 31 32 33 34 35 36 37 38 39 40 41 42 43 44 45 46 47 48 49 50
000
ASUS42 KMHX 252125
RWRMHX
WEATHER ROUNDUP FOR EASTERN NORTH CAROLINA
NATIONAL WEATHER SERVICE NEWPORT/MOREHEAD CITY NC
500 PM EDT FRI MAY 25 2018

NOTE: "FAIR" INDICATES FEW OR NO CLOUDS BELOW 12,000 FEET
WITH NO SIGNIFICANT WEATHER AND/OR OBSTRUCTIONS TO VISIBILITY

NCZ015>017-031-032-045>047-102-103-252200-
NORTH COAST

CITY           SKY/WX    TMP DP  RH WIND       PRES   REMARKS
EDENTON        FAIR      85  69  60 S12       30.01F
ELIZABETH CITY FAIR      84  65  52 S10       30.00F
KITTY HAWK     FAIR      79  65  62 S6        30.01F
MANTEO         FAIR      78  67  69 S16       30.03F

$$

NCZ045>047-081-094-103-104-252200-
CENTRAL COAST

CITY           SKY/WX    TMP DP  RH WIND       PRES   REMARKS
FRISCO         PTSUNNY   80  70  71 S10       30.05F

$$

NCZ095-097-098-100-101-252200-
SOUTHERN COAST

CITY           SKY/WX    TMP DP  RH WIND       PRES   REMARKS
BEAUFORT       FAIR      79  72  79 S10       30.04F
CEDAR ISLAND   NOT AVBL
JACKSONVILLE   FAIR      82  67  60 S13       30.03F
PINEY ISLAND   NOT AVBL
WILMINGTON     FAIR      81  71  71 S9        30.02F


$$

NCZ011>013-027>030-043-044-078>080-089-090>093-098-252200-
COASTAL PLAIN

CITY           SKY/WX    TMP DP  RH WIND       PRES   REMARKS
AHOSKIE        FAIR      81  64  56 S3        30.00F
CLINTON        FAIR      80  73  80 S6        30.03F
ELIZABETHTOWN  FAIR      82  69  64 SE12      30.02F
GOLDSBORO      PTSUNNY   73  69  89 S8        30.02S
GREENVILLE     FAIR      86  64  48 S12       30.02S
HAVELOCK       MOSUNNY   83  70  64 S12       30.04F
KENANSVILLE    CLOUDY    73  72  94 CALM      30.03F
KINSTON        RAIN      82  68  61 SW12G18   30.02F
NEW BERN       FAIR      83  69  62 S13       30.03F
RICHLANDS      FAIR      81  67  62 S12       30.03F
ROCKY MOUNT    FAIR      85  66  53 S5        30.00F
WASHINGTON     CLOUDY    83  66  56 S6        30.01S
WHITEVILLE     FAIR      84  68  58 SE8       30.00F

$$

AMZ130-135-150-152-154-156-158-170-250-252-270-ANZ085-086-088-633-658-670-252200-
MARINE OBSERVATIONS

STATION/POSITION TIME  TEMP    WIND        PRES    WAVE   SWELL
                       AIR SEA DIR/SP/G            HT/PER HT/PER
                 (UTC) (F)     (DEG/KT/KT) (MB)    (FT/S) (FT/S)
CHESAPEAKE LIGHT NOT AVBL
64 E VA BEACH    2050   71 71  180/  8/  8 1017.4    2/ 8   2/ 8
DUCK             2100   79 72  180/ 16/ 21 1015.8
2 E DUCK         2100      73                N/A     2/ 3
OREGON INLET     2100   78 80  180/ 12/ 17 1017.1
13E OREGON INLT  2048      72                N/A     2/ 8   2/ 8
HATTERAS CG      2100   78 77  170/  8/ 13 1017.1
DIAMOND BUOY     2110   77 78  170/ 14/ 17 1017.6
CAPE LOOKOUT     2100          190/ 10/ 12 1017.5
BEAUFORT LAB     2100   78 79  200/  7/ 11 1017.5
30 SE NEW RVR IN 2108   78 77  180/  8/ 10 1017.0
30 SE NEW RVR IN 2100      77                N/A     3/ 9
27 SE WRIGHTSVLE 2108   77 77  190/  6/ 10 1017.1
5 SE WRIGHTSVLE  2108   76 75  170/  6/ 10 1016.3
225 S CAPE HAT   2110      80  170/ 10/ 12 1017.6
41 SE CHARLESTON 2100      78  170/ 12/ 16 1016.6

$$



USA.gov is the U.S. government's official web portal to all federal, state and local government web resources and services.